Location: Copeville
(33.0796°N, 96.4155°W)
Time: 00:46:47
(UTC+00:00)

EO-79 - Visible Passes

Search period start: 20 July 2024 00:00
Search period end: 30 July 2024 00:00
Orbit: 555 x 577 km, 98.0° (Epoch: 19 July)

Date Brightness Start Highest point End Pass type
(mag) Time Alt. Az. Time Alt. Az. Time Alt. Az.
20 Jul ? 09:28:50 10° NNE 09:32:46 54° E 09:34:08 35° SSE visible
21 Jul ? 09:29:23 10° NNE 09:33:21 54° E 09:34:40 36° SSE visible
22 Jul ? 09:29:55 10° NNE 09:33:53 55° E 09:35:11 37° SSE visible
23 Jul ? 09:30:26 10° NNE 09:34:24 56° E 09:35:40 38° SSE visible
24 Jul ? 09:30:56 10° NNE 09:34:54 56° E 09:36:08 39° SSE visible
25 Jul ? 09:31:24 10° NNE 09:35:23 57° E 09:36:34 40° SSE visible
26 Jul ? 09:31:51 10° NNE 09:35:50 57° E 09:36:59 40° SSE visible
27 Jul ? 09:32:16 10° NNE 09:36:16 58° E 09:37:23 41° SSE visible
28 Jul ? 09:32:40 10° NNE 09:36:40 58° E 09:37:45 42° SSE visible
29 Jul ? 09:33:03 10° NNE 09:37:03 59° E 09:38:05 43° SSE visible
